Find Starlink 30086

NORAD ID: 56297 Int'l Des: 2023-056 Owner: SPXS Country: US Constellation: starlink operational
LEOCIRCULAR

当前视图

正在加载3D地球...

About Starlink 30086

Starlink 30086 (NORAD 56297) is a starlink constellation satellite (v2 mini) launched Apr 19, 2023 by SPXS of US. It operates in LEO, CIRCULAR orbit with a mass of 730.00 kg.

关于 Starlink 30086

正在加载描述...

即将过境

Passes for default location (London). Set your location on the main map for personalized predictions.

高度历史

Loading altitude history...

两行轨道根数

1 56297U 23056M 26170.53514290 .00000365 00000-0 22805-4 0 9995
2 56297 43.0043 353.8701 0001235 270.3970 89.6740 15.27573806175619
Epoch: Jun 19, 2026 • Age: 18 hours

当前状态

高度 486.2 km
速度 7.63 km/s
星下点 39.25°N, 101.68°E
发射日期 Apr 19, 2023
运行时间 3.1 years
类型 internet

技术详情

分类 Payload
质量 730.00 kg
干质量 700.00 kg
总质量 730.00 kg
长度 0.30 m
直径 4.10 m
跨度 29.00 m
形状 Box + pan
制造商 SPXS
平台类型 Starlink V2M
阶段状态 In Orbit
所有者/国家 SPXS/US

Most Searched